This is the latest recevied weather packets stored in our database for station/object KC5DAQ-26. If no packets are shown the sender has not sent any weather packets the latest 10 day(s).
| Time | Temp. | Humidity | Pressure | Rain* | Wind** | Luminosity | Snow |
|---|---|---|---|---|---|---|---|
| 1788185943 | 28.89° C | 85% | 1019.9 hPa | 0 mm | - | 120 W/m² | - |
| 1788185882 | 28.89° C | 85% | 1019.9 hPa | 0 mm | - | 109 W/m² | - |
| 1788185825 | 28.89° C | 85% | 1019.8 hPa | 0 mm | - | 111 W/m² | - |
| 1788185763 | 28.89° C | 85% | 1020 hPa | 0 mm | - | 176 W/m² | - |
| 1788185704 | 28.89° C | 85% | 1019.8 hPa | 0 mm | - | 313 W/m² | - |
| 1788185642 | 28.89° C | 85% | 1019.9 hPa | 0 mm | - | 427 W/m² | - |
| 1788185583 | 28.89° C | 85% | 1019.8 hPa | 0 mm | - | 392 W/m² | - |
| 1788185523 | 28.89° C | 85% | 1019.9 hPa | 0 mm | - | 169 W/m² | - |
| 1788185464 | 28.89° C | 85% | 1019.8 hPa | 0 mm | - | 139 W/m² | - |
| 1788185404 | 28.89° C | 85% | 1019.9 hPa | 0 mm | - | 146 W/m² | - |
| 1788185343 | 28.89° C | 85% | 1019.8 hPa | 0 mm | - | 128 W/m² | - |
| 1788185282 | 28.89° C | 85% | 1019.9 hPa | 0 mm | - | 116 W/m² | - |
| 1788185222 | 28.89° C | 85% | 1019.7 hPa | 0 mm | - | 106 W/m² | - |
| 1788185163 | 28.89° C | 84% | 1019.8 hPa | 0 mm | - | 179 W/m² | - |
| 1788185102 | 28.89° C | 84% | 1019.8 hPa | 0 mm | - | 142 W/m² | - |
| 1788185042 | 28.89° C | 85% | 1019.8 hPa | 0 mm | - | 157 W/m² | - |
| 1788184983 | 29.44° C | 84% | 1019.8 hPa | 0 mm | - | 385 W/m² | - |
| 1788184923 | 29.44° C | 84% | 1019.8 hPa | 0 mm | - | 368 W/m² | - |
| 1788184862 | 29.44° C | 85% | 1019.8 hPa | 0 mm | - | 364 W/m² | - |
| 1788184804 | 29.44° C | 85% | 1019.8 hPa | 0 mm | - | 359 W/m² | - |
| 1788184742 | 29.44° C | 86% | 1019.7 hPa | 0 mm | - | 353 W/m² | - |
| 1788184682 | 28.89° C | 86% | 1019.8 hPa | 0 mm | - | 350 W/m² | - |
| 1788184623 | 28.89° C | 85% | 1019.7 hPa | 0 mm | - | 346 W/m² | - |
| 1788184562 | 28.89° C | 85% | 1019.7 hPa | 0 mm | - | 343 W/m² | - |
| 1788184503 | 28.89° C | 86% | 1019.6 hPa | 0 mm | - | 339 W/m² | - |
* Rain latest hour (hover to see other rain measurements)
** Current wind speed in m/s (hover to see current wind gust speed)